Home   Weather   Fort Bragg   Past weeks

Flag for USA Past Weather in Fort Bragg, California, USA — Yesterday and Last 2 Weeks

Now
83 °F

Sunny.


Feels Like: 82 °F
Forecast: 58 / 74 °F
Wind: 5 mph from East

Location: Ukiah Municipal

Current Time: Jul 23, 2017 at 12:02:00 pm

Latest Report: Jul 23, 2017 at 10:56 am


Visibility: 10 mi

Pressure: 29.80 "Hg

Humidity: 37%

Dew Point: 54 °F

Location of Fort BraggLocation

Past Weather in Fort Bragg — Graph

°F

Fort Bragg Temperature Yesterday

Maximum temperature yesterday: 101 °F (at 2:56 pm)
Minimum temperature yesterday: 56 °F (at 5:56 am)
Average temperature yesterday: 79 °F

High & Low Weather Summary for the Past Weeks

 TemperatureHumidityPressure
High101 °F (Jul 9, 3:56 pm)86% (Jul 19, 5:56 am)30.03 "Hg (Jul 19, 5:56 am)
Low53 °F (Jul 18, 5:56 am)5% (Jul 16, 1:56 pm)29.78 "Hg (Jul 22, 5:56 pm)
Average77 °F44%29.90 "Hg
* Reported Jul 8 9:56 am — Jul 23 9:56 am, Fort Bragg. Weather by CustomWeather, © 2017

Note: Actual official high and low records may vary slightly from our data, if they occured in-between our weather recording intervals... More about our weather records

Advertising

Fort Bragg Weather History for the Previous 24 Hours

Scroll right to see more
 ConditionsComfort  
Time TempWeatherWind HumidityBarometerVisibility
9:56 am
Sun, Jul 23
77 °FSunny.No wind47%29.81 "Hg10 mi
8:56 am73 °FSunny.3 mph51%29.82 "Hg10 mi
7:56 am68 °FSunny.No wind63%29.83 "Hg10 mi
6:56 am62 °FSunny.No wind75%29.82 "Hg10 mi
5:56 am61 °FClear.No wind81%29.80 "Hg10 mi
4:56 am61 °FClear.3 mph83%29.80 "Hg10 mi
3:56 am64 °FClear.No wind75%29.79 "Hg10 mi
2:56 am65 °FClear.No wind76%29.79 "Hg10 mi
1:56 am67 °FClear.No wind71%29.80 "Hg10 mi
12:56 am71 °FClear.No wind59%29.81 "Hg10 mi
11:56 pm
Sat, Jul 22
72 °FClear.No wind57%29.82 "Hg10 mi
10:56 pm76 °FClear.No wind47%29.81 "Hg10 mi
9:56 pm79 °FClear.No wind39%29.81 "Hg10 mi
8:56 pm84 °FClear.No wind30%29.80 "Hg10 mi
7:56 pm89 °FSunny.No wind23%29.79 "Hg10 mi
6:56 pm98 °FSunny.No wind14%29.78 "Hg10 mi
5:56 pm99 °FSunny.6 mph13%29.78 "Hg10 mi
4:56 pm100 °FSunny.10 mph14%29.78 "Hg10 mi
3:56 pm101 °FSunny.9 mph14%29.79 "Hg10 mi
2:56 pm101 °FSunny.6 mph15%29.81 "Hg10 mi
1:56 pm99 °FSunny.5 mph19%29.83 "Hg10 mi
12:56 pm93 °FSunny.3 mph23%29.85 "Hg10 mi
Weather by CustomWeather, © 2017

See weather overviewHow to use our weather pages